WX2DX-2 Weather Reports


Display with metric or nautical units.
time (UTC)temp
F
wind
direction
speed
MPH
gust
MPH
rain 1hr
in
rain 24hr
in
rain mn
in
humidity
%
barometer
mb
20260505111546 53 284 0.0 2.0 0.02 0.04 0.04 92 1007.5
20260505101540 51 234 1.0 2.0 0.00 0.02 0.02 93 1007.0
20260505100036 51 300 0.0 3.0 0.00 0.02 0.02 92 1007.1
20260505094537 51 184 0.0 2.0 0.00 0.02 0.02 91 1006.8
20260505093040 51 184 0.0 4.0 0.00 0.02 0.02 92 1007.0
20260505091534 51 171 1.0 5.0 0.00 0.02 0.02 92 1007.0
20260505090048 51 171 0.0 2.0 0.00 0.02 0.02 92 1007.1
20260505084529 51 171 0.0 1.0 0.00 0.02 0.02 91 1006.9
20260505083029 52 171 0.0 1.0 0.01 0.02 0.02 92 1006.6
20260505081530 52 171 0.0 2.0 0.02 0.02 0.02 90 1006.6
20260505080028 53 171 0.0 2.0 0.02 0.02 0.02 87 1006.8
20260505074523 54 165 1.0 5.0 0.02 0.02 0.02 85 1006.7
20260505073020 53 290 0.0 3.0 0.01 0.01 0.01 84 1006.9
20260505071520 53 248 1.0 4.0 0.00 0.00 0.00 83 1006.5
20260505070020 53 236 0.0 2.0 0.00 0.00 0.00 83 1006.4
20260505064517 53 236 0.0 2.0 0.00 0.00 0.00 81 1006.5
20260505063016 55 230 0.0 3.0 0.00 0.00 0.00 78 1006.7
20260505061515 55 215 1.0 4.0 0.00 0.00 0.00 80 1006.8
20260505060025 53 248 0.0 3.0 0.00 0.00 0.00 83 1006.7
20260505054520 53 259 0.0 3.0 0.00 0.00 0.00 83 1006.8
20260505053008 53 274 0.0 3.0 0.00 0.00 0.00 83 1007.0
20260505051506 55 229 0.0 2.0 0.00 0.00 0.00 82 1007.1
20260505041559 55 229 0.0 1.0 0.00 0.00 0.00 81 1007.1
20260505040056 56 229 0.0 1.0 0.00 0.00 0.00 78 1007.1
20260505034555 56 200 1.0 3.0 0.00 0.00 0.00 80 1007.1
20260505033112 55 265 1.0 2.0 0.00 0.00 0.00 82 1007.0
20260505031556 55 265 0.0 1.0 0.00 0.00 0.00 81 1007.0
20260505030054 56 298 0.0 0.0 0.00 0.00 0.00 81 1007.0
20260505024558 57 298 0.0 0.0 0.00 0.00 0.00 80 1007.0
20260505023104 57 298 0.0 2.0 0.00 0.00 0.00 77 1007.2
20260505021553 59 298 0.0 1.0 0.00 0.00 0.00 75 1007.0
20260505020053 60 298 1.0 3.0 0.00 0.00 0.00 71 1007.1
20260505014551 61 274 1.0 2.0 0.00 0.00 0.00 69 1007.2
20260505013051 62 274 1.0 3.0 0.00 0.00 0.00 67 1007.1
20260505011558 64 212 5.0 22.0 0.00 0.00 0.00 62 1007.0
20260505010052 66 216 2.0 8.0 0.00 0.00 0.00 49 1006.8
20260505004554 67 203 3.0 6.0 0.00 0.00 0.00 49 1006.6
20260505003049 67 245 2.0 10.0 0.00 0.00 0.00 46 1006.6
20260505001548 68 221 3.0 8.0 0.00 0.00 0.00 45 1006.4
20260505000049 68 229 6.0 12.0 0.00 0.00 0.00 43 1006.3
20260504234611 69 260 5.0 14.0 0.00 0.00 0.00 45 1006.2
20260504233050 70 198 5.0 17.0 0.00 0.00 0.00 46 1006.0
20260504231554 70 193 5.0 15.0 0.00 0.00 0.00 46 1005.9
20260504230046 71 265 9.0 14.0 0.00 0.00 0.00 44 1005.8
20260504224546 71 232 8.0 19.0 0.00 0.00 0.00 43 1005.8
20260504223045 71 239 7.0 20.0 0.00 0.00 0.00 44 1005.8
20260504221549 72 196 8.0 19.0 0.00 0.00 0.00 42 1005.6
20260504220042 74 219 7.0 18.0 0.00 0.00 0.00 42 1005.7
20260504214542 74 176 7.0 16.0 0.00 0.00 0.00 40 1005.7
20260504213043 74 261 8.0 19.0 0.00 0.00 0.00 38 1005.6
20260504211539 74 211 8.0 18.0 0.00 0.00 0.00 37 1005.7
20260504210036 74 238 7.0 17.0 0.00 0.00 0.00 36 1005.9
20260504204612 74 238 8.0 17.0 0.00 0.00 0.00 39 1006.0
20260504203032 74 241 5.0 19.0 0.00 0.00 0.00 43 1006.2
20260504201529 71 203 5.0 14.0 0.00 0.00 0.00 42 1006.3
20260504200033 73 248 8.0 17.0 0.00 0.00 0.00 40 1006.5
20260504194525 73 224 10.0 18.0 0.00 0.00 0.00 37 1006.6
20260504193025 73 199 7.0 22.0 0.00 0.00 0.00 36 1006.9
20260504191521 73 231 9.0 16.0 0.00 0.00 0.00 35 1007.1
20260504190017 73 156 5.0 12.0 0.00 0.00 0.00 41 1007.2
20260504184514 72 221 11.0 19.0 0.00 0.00 0.00 36 1007.5
20260504183012 72 218 6.0 21.0 0.00 0.00 0.00 38 1007.8
20260504181511 71 192 7.0 19.0 0.00 0.00 0.00 43 1008.0
20260504180006 70 214 10.0 17.0 0.00 0.00 0.00 43 1008.1
20260504174505 69 244 9.0 21.0 0.00 0.00 0.00 44 1008.4
20260504173002 70 221 10.0 21.0 0.00 0.00 0.00 44 1008.6
20260504171505 69 250 11.0 17.0 0.00 0.00 0.00 42 1008.9